TimeMDT,TemperatureF,Dew PointF,Humidity,Sea Level PressureIn,VisibilityMPH,Wind Direction,Wind SpeedMPH,Gust SpeedMPH,PrecipitationIn,Events,Conditions,WindDirDegrees,DateUTC
12:15 AM,66.2,64.4,94,-9999,9.0,Calm,Calm,-,N/A,Thunderstorm,Thunderstorm,0,2013-08-29 06:15:00
12:35 AM,68.0,64.4,88,-9999,10.0,NNE,9.2,-,N/A,Thunderstorm,Thunderstorm,20,2013-08-29 06:35:00
12:55 AM,68.0,64.4,88,-9999,10.0,North,5.8,-,N/A,,Clear,10,2013-08-29 06:55:00
1:15 AM,66.2,64.4,94,-9999,10.0,NNE,10.4,-,N/A,,Clear,30,2013-08-29 07:15:00
1:35 AM,66.2,62.6,88,-9999,10.0,NNE,11.5,-,N/A,,Clear,20,2013-08-29 07:35:00
1:55 AM,66.2,62.6,88,-9999,10.0,NE,4.6,-,N/A,,Clear,40,2013-08-29 07:55:00
2:15 AM,66.2,60.8,83,-9999,10.0,NNE,3.5,-,N/A,,Clear,30,2013-08-29 08:15:00
2:35 AM,64.4,60.8,88,-9999,10.0,NNW,4.6,-,N/A,,Clear,330,2013-08-29 08:35:00
3:15 AM,62.6,60.8,94,-9999,10.0,WNW,6.9,-,N/A,,Clear,300,2013-08-29 09:15:00
3:35 AM,62.6,60.8,94,-9999,10.0,NW,8.1,-,N/A,,Clear,310,2013-08-29 09:35:00
3:55 AM,62.6,60.8,94,-9999,10.0,West,4.6,-,N/A,,Clear,280,2013-08-29 09:55:00
4:15 AM,62.6,60.8,94,-9999,10.0,West,6.9,-,N/A,,Clear,260,2013-08-29 10:15:00
4:35 AM,60.8,59.0,94,-9999,10.0,West,5.8,-,N/A,,Clear,270,2013-08-29 10:35:00
5:15 AM,60.8,59.0,94,29.93,10.0,WNW,6.9,-,N/A,,Clear,290,2013-08-29 11:15:00
5:35 AM,62.6,60.8,94,29.94,10.0,NNW,9.2,-,N/A,,Clear,330,2013-08-29 11:35:00
5:55 AM,62.6,60.8,94,29.95,10.0,NW,8.1,-,N/A,,Clear,320,2013-08-29 11:55:00
6:15 AM,62.6,60.8,94,29.94,10.0,NW,5.8,-,N/A,,Clear,310,2013-08-29 12:15:00
6:35 AM,60.8,59.0,94,29.95,10.0,West,6.9,-,N/A,,Clear,260,2013-08-29 12:35:00
7:15 AM,62.6,60.8,94,-9999,10.0,West,4.6,-,N/A,,Clear,280,2013-08-29 13:15:00
7:35 AM,64.4,62.6,94,-9999,10.0,WNW,5.8,-,N/A,,Clear,300,2013-08-29 13:35:00
7:55 AM,66.2,64.4,94,-9999,10.0,WNW,6.9,-,N/A,,Clear,300,2013-08-29 13:55:00
8:15 AM,69.8,64.4,83,-9999,10.0,West,6.9,-,N/A,,Clear,280,2013-08-29 14:15:00
8:35 AM,71.6,64.4,78,-9999,10.0,West,10.4,-,N/A,,Clear,280,2013-08-29 14:35:00
8:55 AM,73.4,64.4,73,-9999,10.0,WNW,9.2,-,N/A,,Clear,290,2013-08-29 14:55:00
9:15 AM,73.4,64.4,73,-9999,10.0,West,8.1,-,N/A,,Clear,280,2013-08-29 15:15:00
9:35 AM,75.2,64.4,69,-9999,10.0,West,8.1,-,N/A,,Clear,270,2013-08-29 15:35:00
9:55 AM,77.0,66.2,69,-9999,10.0,WSW,6.9,-,N/A,,Clear,240,2013-08-29 15:55:00
10:15 AM,78.8,64.4,61,-9999,10.0,WSW,4.6,-,N/A,,Clear,250,2013-08-29 16:15:00
10:35 AM,78.8,64.4,61,-9999,10.0,WNW,6.9,-,N/A,,Clear,300,2013-08-29 16:35:00
10:55 AM,80.6,64.4,58,-9999,10.0,NW,9.2,-,N/A,,Clear,310,2013-08-29 16:55:00
11:15 AM,82.4,64.4,54,-9999,10.0,WNW,8.1,-,N/A,,Clear,300,2013-08-29 17:15:00
11:35 AM,84.2,62.6,48,-9999,10.0,WNW,9.2,-,N/A,,Clear,290,2013-08-29 17:35:00
12:15 PM,86.0,62.6,45,30.03,10.0,WNW,8.1,-,N/A,,Clear,290,2013-08-29 18:15:00
12:35 PM,-9999,-9999,N/A,-9999,-9999.0,North,-9999.0,-,N/A,,Unknown,0,2013-08-29 18:35:00
12:55 PM,86.0,60.8,43,30.02,10.0,WNW,6.9,-,N/A,,Clear,290,2013-08-29 18:55:00
1:15 PM,87.8,60.8,40,30.02,10.0,NNE,3.5,-,N/A,,Clear,20,2013-08-29 19:15:00
1:35 PM,87.8,60.8,40,30.02,10.0,Calm,Calm,-,N/A,,Clear,0,2013-08-29 19:35:00
2:35 PM,89.6,60.8,38,30.01,10.0,WNW,10.4,17.3,N/A,,Clear,290,2013-08-29 20:35:00
2:55 PM,89.6,60.8,38,30.00,10.0,North,12.7,-,N/A,,Clear,350,2013-08-29 20:55:00
3:15 PM,89.6,60.8,38,30.00,10.0,NNW,9.2,-,N/A,,Clear,330,2013-08-29 21:15:00
3:55 PM,89.6,57.2,33,29.99,10.0,NNW,5.8,-,N/A,,Clear,330,2013-08-29 21:55:00
4:16 PM,89.6,57.2,33,29.99,10.0,NNW,8.1,-,N/A,,Clear,330,2013-08-29 22:16:00
4:35 PM,89.6,55.4,31,29.99,10.0,WNW,3.5,-,N/A,,Clear,290,2013-08-29 22:35:00
4:55 PM,89.6,57.2,33,29.99,10.0,NNW,4.6,-,N/A,,Clear,330,2013-08-29 22:55:00
5:15 PM,89.6,53.6,29,29.99,10.0,NNW,9.2,-,N/A,,Clear,330,2013-08-29 23:15:00
5:35 PM,89.6,53.6,29,29.99,10.0,North,5.8,-,N/A,,Clear,10,2013-08-29 23:35:00
5:55 PM,89.6,55.4,31,29.99,10.0,Calm,Calm,-,N/A,,Clear,0,2013-08-29 23:55:00
6:15 PM,87.8,55.4,33,29.99,10.0,NW,5.8,-,N/A,,Clear,320,2013-08-30 00:15:00
6:35 PM,86.0,55.4,35,30.00,10.0,NNW,8.1,-,N/A,,Clear,340,2013-08-30 00:35:00
6:55 PM,84.2,57.2,40,30.01,10.0,NNW,5.8,-,N/A,,Clear,340,2013-08-30 00:55:00
7:15 PM,82.4,55.4,39,30.01,10.0,NNW,6.9,-,N/A,,Clear,330,2013-08-30 01:15:00
7:35 PM,78.8,57.2,47,30.01,10.0,North,5.8,-,N/A,,Clear,360,2013-08-30 01:35:00
7:55 PM,77.0,57.2,50,30.01,10.0,North,5.8,-,N/A,,Clear,10,2013-08-30 01:55:00
8:15 PM,77.0,57.2,50,30.01,10.0,North,4.6,-,N/A,,Clear,10,2013-08-30 02:15:00
8:35 PM,75.2,57.2,53,30.01,10.0,North,3.5,-,N/A,,Clear,350,2013-08-30 02:35:00
8:55 PM,77.0,57.2,50,30.02,10.0,North,4.6,-,N/A,,Clear,360,2013-08-30 02:55:00
9:15 PM,75.2,57.2,53,30.02,10.0,NNW,5.8,-,N/A,,Clear,330,2013-08-30 03:15:00
9:35 PM,71.6,57.2,60,30.02,10.0,NW,4.6,-,N/A,,Clear,320,2013-08-30 03:35:00
9:55 PM,69.8,57.2,64,30.02,10.0,NNW,4.6,-,N/A,,Clear,330,2013-08-30 03:55:00
10:15 PM,71.6,57.2,60,30.02,10.0,North,5.8,-,N/A,,Clear,350,2013-08-30 04:15:00
10:35 PM,69.8,57.2,64,30.01,10.0,North,5.8,-,N/A,,Clear,360,2013-08-30 04:35:00
10:55 PM,69.8,59.0,68,30.01,10.0,North,4.6,-,N/A,,Clear,350,2013-08-30 04:55:00
11:15 PM,66.2,57.2,73,30.02,10.0,NW,4.6,-,N/A,,Clear,320,2013-08-30 05:15:00
11:35 PM,68.0,59.0,73,30.01,10.0,North,5.8,-,N/A,,Clear,360,2013-08-30 05:35:00
11:55 PM,68.0,59.0,73,30.02,10.0,NNE,3.5,-,N/A,,Clear,20,2013-08-30 05:55:00